Location: Asbacherhof
(48.8543°N, 10.7903°E)
Time: 23:02:25
(UTC+00:00)

Cosmos 1553 Rocket - Pass Details

Date: 26 May 2022
Orbit: 942 x 1007 km, 82.9° (Epoch: 26 June)

Event Time Altitude Azimuth Distance (km) Brightness Sun altitude
Exits shadow 00:03:21 29° 218° (SW) 1,660 4.7 -19.2°
Maximum altitude 00:06:22 57° 284° (WNW) 1,125 4.3 -19.1°
Drops below altitude 10° 00:12:29 10° 3° (N) 2,722 7.5 -18.8°
Sets 00:15:06 0° 7° (N) 3,683 8.7 -18.7°
